,,PA_Meas_PMT16A,,PR_Meas_QMR101_102,,RH_Meas_QMH101,,SR_Meas_QMS101,,TA_Meas_QMH101,,GenWind,,GenWind,
time,status,PA,status,PR,status,RH,status,SR,status,TA,status,DirAvg,status,SpdAvg,
2013-02-17, 00:00:04,VALID,917.039,VALID,0,VALID,96.1313,VALID,0,VALID,19.4883,VALID,105,VALID,0.462891,
2013-02-17, 00:01:04,VALID,917.05,VALID,0,VALID,96.1618,VALID,0,VALID,19.4883,VALID,105,VALID,0.520312,
2013-02-17, 00:02:04,VALID,917.026,VALID,0,VALID,96.1846,VALID,0,VALID,19.4688,VALID,105,VALID,0.579297,
2013-02-17, 00:03:04,VALID,917.031,VALID,0,VALID,96.1999,VALID,0,VALID,19.4883,VALID,105,VALID,0.785156,
2013-02-17, 00:04:04,VALID,917.009,VALID,0,VALID,96.2151,VALID,0,VALID,19.4883,VALID,105,VALID,0.614844,
2013-02-17, 00:05:04,VALID,916.974,VALID,0,VALID,96.238,VALID,0,VALID,19.4688,VALID,105,VALID,0.736719,
2013-02-17, 00:06:04,VALID,916.989,VALID,0,VALID,96.2609,VALID,0,VALID,19.4688,VALID,105,VALID,0.675391,
2013-02-17, 00:07:04,VALID,916.992,VALID,0,VALID,96.2761,VALID,0,VALID,19.4478,VALID,105,VALID,0.7125,
2013-02-17, 00:08:04,VALID,916.996,VALID,0,VALID,96.3142,VALID,0,VALID,19.4688,VALID,105,VALID,1.18086,
2013-02-17, 00:09:04,VALID,916.945,VALID,0,VALID,96.3524,VALID,0,VALID,19.4883,VALID,113,VALID,0.766797,
2013-02-17, 00:10:04,VALID,916.952,VALID,0,VALID,96.3752,VALID,0,VALID,19.4883,VALID,139,VALID,0.808984,
2013-02-17, 00:11:04,VALID,916.915,VALID,0,VALID,96.4133,VALID,0.107441,VALID,19.4868,VALID,143,VALID,0.257422,
2013-02-17, 00:12:04,VALID,916.902,VALID,0,VALID,96.4591,VALID,0,VALID,19.5468,VALID,143,VALID,0.439063,
2013-02-17, 00:13:04,VALID,916.863,VALID,0,VALID,96.4743,VALID,0,VALID,19.5468,VALID,140,VALID,0.784766,
2013-02-17, 00:14:04,VALID,916.859,VALID,0,VALID,96.4896,VALID,0,VALID,19.5273,VALID,135,VALID,0.584375,
2013-02-17, 00:15:04,VALID,916.855,VALID,0,VALID,96.4972,VALID,0,VALID,19.5273,VALID,135,VALID,0.518359,
2013-02-17, 00:16:04,VALID,916.85,VALID,0,VALID,96.5201,VALID,0,VALID,19.5273,VALID,144,VALID,0.503125,
2013-02-17, 00:17:04,VALID,916.814,VALID,0,VALID,96.5506,VALID,0,VALID,19.5273,VALID,144,VALID,0.633203,
2013-02-17, 00:18:04,VALID,916.79,VALID,0,VALID,96.5353,VALID,0,VALID,19.5273,VALID,144,VALID,0.659375,
2013-02-17, 00:19:04,VALID,916.806,VALID,0,VALID,96.5811,VALID,0,VALID,19.5078,VALID,144,VALID,0.406641,
2013-02-17, 00:20:04,VALID,916.778,VALID,0,VALID,96.5811,VALID,0,VALID,19.5078,VALID,144,VALID,0.703906,
2013-02-17, 00:21:04,VALID,916.773,VALID,0,VALID,96.5887,VALID,0,VALID,19.5078,VALID,144,VALID,0.326562,
2013-02-17, 00:22:04,VALID,916.773,VALID,0,VALID,96.6268,VALID,0,VALID,19.5078,VALID,144,VALID,0.280859,
2013-02-17, 00:23:04,VALID,916.74,VALID,0,VALID,96.642,VALID,0,VALID,19.5273,VALID,144,VALID,0.01875,
2013-02-17, 00:24:04,VALID,916.722,VALID,0,VALID,96.6573,VALID,0,VALID,19.5273,VALID,144,VALID,0.806641,
2013-02-17, 00:25:04,VALID,916.742,VALID,0,VALID,96.6954,VALID,0,VALID,19.5273,VALID,144,VALID,0.183594,
2013-02-17, 00:26:04,VALID,916.716,VALID,0,VALID,96.6725,VALID,0,VALID,19.5483,VALID,148,VALID,0.570313,
2013-02-17, 00:27:04,VALID,916.691,VALID,0,VALID,96.6802,VALID,0,VALID,19.5273,VALID,149,VALID,0.355859,
2013-02-17, 00:28:04,VALID,916.669,VALID,0,VALID,96.703,VALID,0,VALID,19.5273,VALID,149,VALID,0.180469,
2013-02-17, 00:29:04,VALID,916.664,VALID,0,VALID,96.6954,VALID,0,VALID,19.5273,VALID,149,VALID,0.378125,
2013-02-17, 00:30:04,VALID,916.651,VALID,0,VALID,96.7107,VALID,0,VALID,19.5273,VALID,149,VALID,0.553906,
2013-02-17, 00:31:04,VALID,916.622,VALID,0,VALID,96.7107,VALID,0,VALID,19.5078,VALID,149,VALID,0.165234,
2013-02-17, 00:32:04,VALID,916.579,VALID,0,VALID,96.7107,VALID,0,VALID,19.5078,VALID,149,VALID,0.158984,
2013-02-17, 00:33:04,VALID,916.552,VALID,0,VALID,96.7259,VALID,0,VALID,19.5273,VALID,149,VALID,0.159766,
2013-02-17, 00:34:04,VALID,916.571,VALID,0,VALID,96.7259,VALID,0,VALID,19.5468,VALID,145,VALID,0.29375,
2013-02-17, 00:35:04,VALID,916.557,VALID,0,VALID,96.7488,VALID,0,VALID,19.5273,VALID,145,VALID,0.350781,
2013-02-17, 00:36:04,VALID,916.536,VALID,0,VALID,96.7564,VALID,0,VALID,19.5468,VALID,145,VALID,0.316016,
2013-02-17, 00:37:04,VALID,916.574,VALID,0,VALID,96.7488,VALID,0,VALID,19.5273,VALID,145,VALID,0.491016,
2013-02-17, 00:38:04,VALID,916.551,VALID,0,VALID,96.764,VALID,0,VALID,19.5468,VALID,145,VALID,0.135156,
2013-02-17, 00:39:04,VALID,916.563,VALID,0,VALID,96.7564,VALID,0.107441,VALID,19.5468,VALID,145,VALID,0,
2013-02-17, 00:40:04,VALID,916.541,VALID,0,VALID,96.7564,VALID,0,VALID,19.5663,VALID,145,VALID,0.178125,
2013-02-17, 00:41:04,VALID,916.546,VALID,0,VALID,96.7869,VALID,0,VALID,19.5453,VALID,145,VALID,0.195313,
2013-02-17, 00:42:04,VALID,916.523,VALID,0,VALID,96.7716,VALID,0,VALID,19.5663,VALID,145,VALID,0.173047,
2013-02-17, 00:43:04,VALID,916.529,VALID,0,VALID,96.764,VALID,0,VALID,19.5873,VALID,145,VALID,0.680859,
2013-02-17, 00:44:04,VALID,916.526,VALID,0,VALID,96.7869,VALID,0,VALID,19.5663,VALID,148,VALID,0.44375,
2013-02-17, 00:45:04,VALID,916.497,VALID,0,VALID,96.7564,VALID,0,VALID,19.5468,VALID,118,VALID,0.475391,
2013-02-17, 00:46:04,VALID,916.513,VALID,0,VALID,96.7411,VALID,0,VALID,19.5273,VALID,118,VALID,0.558594,
2013-02-17, 00:47:04,VALID,916.515,VALID,0,VALID,96.7259,VALID,0,VALID,19.5273,VALID,119,VALID,0.326953,
2013-02-17, 00:48:04,VALID,916.516,VALID,0,VALID,96.7183,VALID,0,VALID,19.5273,VALID,119,VALID,0.0449219,
2013-02-17, 00:49:04,VALID,916.506,VALID,0,VALID,96.6725,VALID,0,VALID,19.5273,VALID,119,VALID,0.178516,
2013-02-17, 00:50:04,VALID,916.538,VALID,0,VALID,96.6954,VALID,0,VALID,19.5483,VALID,119,VALID,0,
2013-02-17, 00:51:04,VALID,916.551,VALID,0,VALID,96.6802,VALID,0,VALID,19.5468,VALID,119,VALID,0.234766,
2013-02-17, 00:52:04,VALID,916.563,VALID,0,VALID,96.6725,VALID,0,VALID,19.5663,VALID,119,VALID,0,
2013-02-17, 00:53:04,VALID,916.618,VALID,0,VALID,96.6649,VALID,0,VALID,19.5663,VALID,131,VALID,0.428906,
2013-02-17, 00:54:04,VALID,916.625,VALID,0,VALID,96.642,VALID,0,VALID,19.5663,VALID,131,VALID,0.398438,
2013-02-17, 00:55:04,VALID,916.631,VALID,0,VALID,96.6115,VALID,0,VALID,19.5663,VALID,131,VALID,0.132813,
2013-02-17, 00:56:04,VALID,916.646,VALID,0,VALID,96.6115,VALID,0,VALID,19.5858,VALID,131,VALID,0.0496094,
2013-02-17, 00:57:04,VALID,916.608,VALID,0,VALID,96.5811,VALID,0,VALID,19.6053,VALID,130,VALID,0.0210938,
2013-02-17, 00:58:04,VALID,916.628,VALID,0,VALID,96.5734,VALID,0,VALID,19.6443,VALID,130,VALID,0.147656,
2013-02-17, 00:59:04,VALID,916.608,VALID,0,VALID,96.5353,VALID,0,VALID,19.6248,VALID,130,VALID,0.0121094,
2013-02-17, 01:00:04,VALID,916.611,VALID,0,VALID,96.4896,VALID,0,VALID,19.6458,VALID,130,VALID,0,
2013-02-17, 01:01:04,VALID,916.629,VALID,0,VALID,96.4819,VALID,0,VALID,19.6443,VALID,131,VALID,0,
2013-02-17, 01:02:04,VALID,916.584,VALID,0,VALID,96.4591,VALID,0,VALID,19.6248,VALID,124,VALID,0.252344,
2013-02-17, 01:03:04,VALID,916.592,VALID,0,VALID,96.3752,VALID,0,VALID,19.6053,VALID,107,VALID,0.236328,
2013-02-17, 01:04:04,VALID,916.587,VALID,0,VALID,96.3676,VALID,0,VALID,19.6248,VALID,107,VALID,0,
2013-02-17, 01:05:04,VALID,916.591,VALID,0,VALID,96.3371,VALID,0,VALID,19.6248,VALID,107,VALID,0,
2013-02-17, 01:06:04,VALID,916.603,VALID,0,VALID,96.3219,VALID,0,VALID,19.6248,VALID,107,VALID,0.333984,
2013-02-17, 01:07:04,VALID,916.599,VALID,0,VALID,96.3066,VALID,0,VALID,19.6248,VALID,107,VALID,0.154687,
2013-02-17, 01:08:04,VALID,916.611,VALID,0,VALID,96.2914,VALID,0,VALID,19.6248,VALID,107,VALID,0,
2013-02-17, 01:09:04,VALID,916.611,VALID,0,VALID,96.2837,VALID,0,VALID,19.6068,VALID,107,VALID,0,
2013-02-17, 01:10:04,VALID,916.644,VALID,0,VALID,96.2761,VALID,0,VALID,19.6053,VALID,107,VALID,0,
2013-02-17, 01:11:04,VALID,916.646,VALID,0,VALID,96.2761,VALID,0,VALID,19.6053,VALID,107,VALID,0,
2013-02-17, 01:12:04,VALID,916.643,VALID,0,VALID,96.2914,VALID,0,VALID,19.6248,VALID,107,VALID,0,
2013-02-17, 01:13:04,VALID,916.626,VALID,0,VALID,96.2609,VALID,0,VALID,19.6053,VALID,107,VALID,0,
2013-02-17, 01:14:04,VALID,916.607,VALID,0,VALID,96.238,VALID,0,VALID,19.5843,VALID,107,VALID,0,
2013-02-17, 01:15:04,VALID,916.619,VALID,0,VALID,96.2151,VALID,0,VALID,19.6053,VALID,107,VALID,0,
2013-02-17, 01:16:04,VALID,916.626,VALID,0,VALID,96.2456,VALID,0,VALID,19.6248,VALID,107,VALID,0,
2013-02-17, 01:17:04,VALID,916.609,VALID,0,VALID,96.2304,VALID,0,VALID,19.6443,VALID,108,VALID,0,
2013-02-17, 01:18:05,VALID,916.583,VALID,0,VALID,96.2075,VALID,0,VALID,19.6653,VALID,126,VALID,0.0894531,
2013-02-17, 01:19:05,VALID,916.599,VALID,0,VALID,96.1008,VALID,0,VALID,19.6053,VALID,126,VALID,0.379687,
2013-02-17, 01:20:05,VALID,916.573,VALID,0,VALID,96.0169,VALID,0,VALID,19.5858,VALID,126,VALID,0.533594,
2013-02-17, 01:21:05,VALID,916.587,VALID,0,VALID,96.1008,VALID,0,VALID,19.5663,VALID,117,VALID,0.885938,
2013-02-17, 01:22:05,VALID,916.582,VALID,0,VALID,96.116,VALID,0,VALID,19.5273,VALID,117,VALID,0.578125,
2013-02-17, 01:23:05,VALID,916.564,VALID,0,VALID,96.1694,VALID,0,VALID,19.5078,VALID,114,VALID,0.9,
2013-02-17, 01:24:05,VALID,916.579,VALID,0,VALID,96.177,VALID,0,VALID,19.4883,VALID,108,VALID,0.512891,
2013-02-17, 01:25:05,VALID,916.57,VALID,0,VALID,96.2456,VALID,0,VALID,19.4883,VALID,108,VALID,0.693359,
2013-02-17, 01:26:05,VALID,916.529,VALID,0,VALID,96.2456,VALID,0,VALID,19.4898,VALID,108,VALID,0.560156,
2013-02-17, 01:27:05,VALID,916.533,VALID,0,VALID,96.2761,VALID,0,VALID,19.4688,VALID,116,VALID,0.902734,
2013-02-17, 01:28:05,VALID,916.544,VALID,0,VALID,96.2914,VALID,0,VALID,19.4493,VALID,106,VALID,0.779688,
2013-02-17, 01:29:05,VALID,916.536,VALID,0,VALID,96.3295,VALID,0,VALID,19.4493,VALID,132,VALID,0.570313,
2013-02-17, 01:30:05,VALID,916.54,VALID,0,VALID,96.3829,VALID,0,VALID,19.4298,VALID,113,VALID,0.776172,
2013-02-17, 01:31:05,VALID,916.554,VALID,0,VALID,96.4057,VALID,0,VALID,19.4298,VALID,116,VALID,0.611328,
2013-02-17, 01:32:05,VALID,916.542,VALID,0,VALID,96.4286,VALID,0,VALID,19.4298,VALID,154,VALID,0.438281,
2013-02-17, 01:33:05,VALID,916.513,VALID,0,VALID,96.4515,VALID,0,VALID,19.4103,VALID,135,VALID,0.453906,
2013-02-17, 01:34:05,VALID,916.493,VALID,0,VALID,96.4972,VALID,0,VALID,19.4103,VALID,143,VALID,0.655859,
2013-02-17, 01:35:05,VALID,916.472,VALID,0,VALID,96.5353,VALID,0,VALID,19.4298,VALID,142,VALID,0.510547,
2013-02-17, 01:36:05,VALID,916.477,VALID,0,VALID,96.5353,VALID,0,VALID,19.4298,VALID,141,VALID,0.975391,
2013-02-17, 01:37:05,VALID,916.493,VALID,0,VALID,96.5429,VALID,0,VALID,19.4298,VALID,136,VALID,0.568359,
2013-02-17, 01:38:05,VALID,916.435,VALID,0,VALID,96.5734,VALID,0,VALID,19.4103,VALID,133,VALID,1.01719,
2013-02-17, 01:39:05,VALID,916.448,VALID,0,VALID,96.6039,VALID,0,VALID,19.3908,VALID,135,VALID,0.711719,
2013-02-17, 01:40:05,VALID,916.408,VALID,0,VALID,96.6039,VALID,0,VALID,19.3908,VALID,134,VALID,0.766406,
2013-02-17, 01:41:05,VALID,916.403,VALID,0,VALID,96.6344,VALID,0,VALID,19.3908,VALID,134,VALID,0.715234,
2013-02-17, 01:42:05,VALID,916.383,VALID,0,VALID,96.6497,VALID,0,VALID,19.3908,VALID,127,VALID,0.98125,
2013-02-17, 01:43:05,VALID,916.361,VALID,0,VALID,96.6649,VALID,0,VALID,19.4103,VALID,140,VALID,0.619141,
2013-02-17, 01:44:05,VALID,916.365,VALID,0,VALID,96.6725,VALID,0,VALID,19.4103,VALID,134,VALID,0.0882813,
2013-02-17, 01:45:05,VALID,916.33,VALID,0,VALID,96.7107,VALID,0,VALID,19.4298,VALID,136,VALID,0.348047,
2013-02-17, 01:46:05,VALID,916.313,VALID,0,VALID,96.7411,VALID,0,VALID,19.4493,VALID,131,VALID,0.250781,
2013-02-17, 01:47:05,VALID,916.278,VALID,0,VALID,96.7488,VALID,0,VALID,19.4298,VALID,137,VALID,0.802734,
2013-02-17, 01:48:05,VALID,916.277,VALID,0,VALID,96.7335,VALID,0,VALID,19.4298,VALID,132,VALID,1.03555,
2013-02-17, 01:49:05,VALID,916.259,VALID,0,VALID,96.7411,VALID,0,VALID,19.4493,VALID,122,VALID,0.547266,
2013-02-17, 01:50:05,VALID,916.239,VALID,0,VALID,96.7488,VALID,0,VALID,19.4493,VALID,122,VALID,0.358203,
2013-02-17, 01:51:05,VALID,916.214,VALID,0,VALID,96.764,VALID,0,VALID,19.4688,VALID,122,VALID,0.0824219,
2013-02-17, 01:52:05,VALID,916.225,VALID,0,VALID,96.764,VALID,0,VALID,19.4688,VALID,122,VALID,0.602344,
2013-02-17, 01:53:05,VALID,916.187,VALID,0,VALID,96.7411,VALID,0,VALID,19.4688,VALID,149,VALID,0.378906,
2013-02-17, 01:54:05,VALID,916.175,VALID,0,VALID,96.7564,VALID,0,VALID,19.4688,VALID,149,VALID,0.00351562,
2013-02-17, 01:55:05,VALID,916.162,VALID,0,VALID,96.7488,VALID,0,VALID,19.4883,VALID,149,VALID,0.35,
2013-02-17, 01:56:05,VALID,916.178,VALID,0,VALID,96.7488,VALID,0,VALID,19.5288,VALID,149,VALID,0.203516,
2013-02-17, 01:57:05,VALID,916.168,VALID,0,VALID,96.7716,VALID,0,VALID,19.5468,VALID,149,VALID,0,
2013-02-17, 01:58:05,VALID,916.16,VALID,0,VALID,96.7716,VALID,0,VALID,19.5078,VALID,149,VALID,0.186328,
2013-02-17, 01:59:05,VALID,916.177,VALID,0,VALID,96.7488,VALID,0,VALID,19.5063,VALID,149,VALID,0.175391,
2013-02-17, 02:00:05,VALID,916.132,VALID,0,VALID,96.7564,VALID,0,VALID,19.5273,VALID,149,VALID,0.385547,
2013-02-17, 02:01:05,VALID,916.127,VALID,0,VALID,96.7335,VALID,0,VALID,19.5273,VALID,147,VALID,0.456641,
2013-02-17, 02:02:05,VALID,916.119,VALID,0,VALID,96.7259,VALID,0,VALID,19.5078,VALID,146,VALID,0.439453,
2013-02-17, 02:03:05,VALID,916.125,VALID,0,VALID,96.7107,VALID,0,VALID,19.5288,VALID,151,VALID,0.418359,
2013-02-17, 02:04:05,VALID,916.125,VALID,0,VALID,96.6954,VALID,0,VALID,19.5468,VALID,151,VALID,0.146094,
2013-02-17, 02:05:05,VALID,916.109,VALID,0,VALID,96.6954,VALID,0,VALID,19.5453,VALID,151,VALID,0.244922,
2013-02-17, 02:06:05,VALID,916.094,VALID,0,VALID,96.6649,VALID,0,VALID,19.5468,VALID,151,VALID,0.439063,
2013-02-17, 02:07:05,VALID,916.102,VALID,0,VALID,96.6192,VALID,0,VALID,19.5678,VALID,150,VALID,0.789063,
2013-02-17, 02:08:05,VALID,916.071,VALID,0,VALID,96.6039,VALID,0,VALID,19.5663,VALID,136,VALID,0.566797,
2013-02-17, 02:09:05,VALID,916.09,VALID,0,VALID,96.5582,VALID,0,VALID,19.5873,VALID,133,VALID,0.764063,
2013-02-17, 02:10:05,VALID,916.055,VALID,0,VALID,96.5124,VALID,0,VALID,19.5663,VALID,129,VALID,0.55,
2013-02-17, 02:11:05,VALID,916.043,VALID,0,VALID,96.5048,VALID,0,VALID,19.5468,VALID,129,VALID,0.422656,
2013-02-17, 02:12:05,VALID,916.011,VALID,0,VALID,96.4286,VALID,0,VALID,19.5468,VALID,124,VALID,0.797656,
2013-02-17, 02:13:05,VALID,916.003,VALID,0,VALID,96.3981,VALID,0,VALID,19.5273,VALID,115,VALID,0.816406,
2013-02-17, 02:14:05,VALID,916.012,VALID,0,VALID,96.3371,VALID,0,VALID,19.5273,VALID,115,VALID,0.833594,
2013-02-17, 02:15:05,VALID,915.994,VALID,0,VALID,96.2914,VALID,0,VALID,19.5078,VALID,113,VALID,1.09023,
2013-02-17, 02:16:05,VALID,915.982,VALID,0,VALID,96.2761,VALID,0,VALID,19.4883,VALID,112,VALID,0.968359,
2013-02-17, 02:17:05,VALID,915.972,VALID,0,VALID,96.2075,VALID,0,VALID,19.4688,VALID,126,VALID,0.989453,
2013-02-17, 02:18:05,VALID,915.956,VALID,0,VALID,96.1236,VALID,0,VALID,19.4493,VALID,125,VALID,1.49609,
2013-02-17, 02:19:05,VALID,915.984,VALID,0,VALID,96.0855,VALID,0,VALID,19.4703,VALID,130,VALID,1.2543,
2013-02-17, 02:20:05,VALID,915.958,VALID,0,VALID,96.0627,VALID,0,VALID,19.4493,VALID,128,VALID,0.733984,
2013-02-17, 02:21:05,VALID,915.958,VALID,0,VALID,96.055,VALID,0,VALID,19.4493,VALID,138,VALID,0.889063,
2013-02-17, 02:22:05,VALID,915.925,VALID,0,VALID,96.0245,VALID,0,VALID,19.4493,VALID,123,VALID,0.369531,
2013-02-17, 02:23:05,VALID,915.924,VALID,0,VALID,96.0169,VALID,0,VALID,19.4493,VALID,123,VALID,0.457422,
2013-02-17, 02:24:05,VALID,915.902,VALID,0,VALID,95.9178,VALID,0,VALID,19.4493,VALID,123,VALID,0.865625,
2013-02-17, 02:25:05,VALID,915.842,VALID,0,VALID,95.895,VALID,0,VALID,19.4298,VALID,123,VALID,0.575781,
2013-02-17, 02:26:05,VALID,915.842,VALID,0,VALID,95.8873,VALID,0,VALID,19.4298,VALID,123,VALID,0.624609,
2013-02-17, 02:27:05,VALID,915.83,VALID,0,VALID,95.8416,VALID,0,VALID,19.4313,VALID,107,VALID,0.826953,
2013-02-17, 02:28:05,VALID,915.764,VALID,0,VALID,95.8111,VALID,0,VALID,19.4103,VALID,103,VALID,0.782422,
2013-02-17, 02:29:05,VALID,915.79,VALID,0,VALID,95.8263,VALID,0,VALID,19.3908,VALID,103,VALID,0.697656,
2013-02-17, 02:30:05,VALID,915.772,VALID,0,VALID,95.7577,VALID,0,VALID,19.3908,VALID,103,VALID,0.658984,
2013-02-17, 02:31:05,VALID,915.767,VALID,0,VALID,95.7349,VALID,0,VALID,19.3908,VALID,103,VALID,0.790625,
2013-02-17, 02:32:05,VALID,915.77,VALID,0,VALID,95.7196,VALID,0,VALID,19.3713,VALID,115,VALID,0.804297,
2013-02-17, 02:33:05,VALID,915.776,VALID,0,VALID,95.6739,VALID,0,VALID,19.3323,VALID,115,VALID,1.20391,
2013-02-17, 02:34:05,VALID,915.782,VALID,0,VALID,95.6967,VALID,0,VALID,19.3128,VALID,119,VALID,0.947266,
2013-02-17, 02:35:05,VALID,915.771,VALID,0,VALID,95.7349,VALID,0,VALID,19.3323,VALID,131,VALID,0.962109,
2013-02-17, 02:36:05,VALID,915.744,VALID,0,VALID,95.7577,VALID,0,VALID,19.3338,VALID,138,VALID,0.811328,
2013-02-17, 02:37:05,VALID,915.722,VALID,0,VALID,95.712,VALID,0,VALID,19.2933,VALID,131,VALID,0.783984,
2013-02-17, 02:38:05,VALID,915.725,VALID,0,VALID,95.773,VALID,0,VALID,19.2933,VALID,129,VALID,0.376172,
2013-02-17, 02:39:05,VALID,915.673,VALID,0,VALID,95.7882,VALID,0,VALID,19.2738,VALID,129,VALID,0.655078,
2013-02-17, 02:40:05,VALID,915.629,VALID,0.2,VALID,95.7882,VALID,0,VALID,19.2738,VALID,129,VALID,0.714453,
2013-02-17, 02:41:05,VALID,915.603,VALID,0,VALID,95.7958,VALID,0,VALID,19.2543,VALID,104,VALID,0.821094,
2013-02-17, 02:42:05,VALID,915.572,VALID,0,VALID,95.7958,VALID,0,VALID,19.2558,VALID,104,VALID,0.454297,
2013-02-17, 02:43:05,VALID,915.581,VALID,0,VALID,95.9178,VALID,0,VALID,19.2543,VALID,104,VALID,0.226172,
2013-02-17, 02:44:05,VALID,915.552,VALID,0,VALID,95.8873,VALID,0,VALID,19.2558,VALID,104,VALID,0.490234,
2013-02-17, 02:45:05,VALID,915.547,VALID,0,VALID,95.7882,VALID,0,VALID,19.2153,VALID,104,VALID,0.723437,
2013-02-17, 02:46:05,VALID,915.551,VALID,0,VALID,95.7044,VALID,0,VALID,19.1958,VALID,104,VALID,0.463281,
2013-02-17, 02:47:05,VALID,915.53,VALID,0.2,VALID,95.7425,VALID,0,VALID,19.1958,VALID,104,VALID,0.435937,
2013-02-17, 02:48:05,VALID,915.522,VALID,0,VALID,95.6586,VALID,0,VALID,19.1763,VALID,128,VALID,0.808984,
2013-02-17, 02:49:05,VALID,915.529,VALID,0,VALID,95.6586,VALID,0,VALID,19.1763,VALID,128,VALID,0.661328,
2013-02-17, 02:50:05,VALID,915.5,VALID,0,VALID,95.59,VALID,0,VALID,19.1568,VALID,117,VALID,0.784766,
2013-02-17, 02:51:05,VALID,915.499,VALID,0,VALID,95.5671,VALID,0,VALID,19.1568,VALID,129,VALID,0.755078,
2013-02-17, 02:52:05,VALID,915.497,VALID,0,VALID,95.5748,VALID,0,VALID,19.1763,VALID,129,VALID,0.755859,
2013-02-17, 02:53:05,VALID,915.467,VALID,0,VALID,95.6281,VALID,0,VALID,19.1763,VALID,129,VALID,0.423828,
2013-02-17, 02:54:05,VALID,915.492,VALID,0,VALID,95.6586,VALID,0,VALID,19.1973,VALID,129,VALID,0.522266,
2013-02-17, 02:55:05,VALID,915.472,VALID,0,VALID,95.6891,VALID,0,VALID,19.1958,VALID,129,VALID,0.402734,
2013-02-17, 02:56:05,VALID,915.48,VALID,0,VALID,95.6357,VALID,0,VALID,19.1763,VALID,129,VALID,0.338672,
2013-02-17, 02:57:05,VALID,915.476,VALID,0,VALID,95.6434,VALID,0,VALID,19.2168,VALID,129,VALID,0.350391,
2013-02-17, 02:58:05,VALID,915.463,VALID,0,VALID,95.7196,VALID,0,VALID,19.2153,VALID,129,VALID,0.290234,
2013-02-17, 02:59:05,VALID,915.488,VALID,0,VALID,95.7501,VALID,0,VALID,19.2348,VALID,129,VALID,0.0484375,
2013-02-17, 03:00:05,VALID,915.467,VALID,0,VALID,95.7577,VALID,0,VALID,19.2348,VALID,129,VALID,0.0742188,
2013-02-17, 03:01:05,VALID,915.474,VALID,0,VALID,95.8416,VALID,0,VALID,19.2543,VALID,129,VALID,0.0417969,
2013-02-17, 03:02:05,VALID,915.452,VALID,0.2,VALID,95.8721,VALID,0,VALID,19.2543,VALID,129,VALID,0.252734,
2013-02-17, 03:03:05,VALID,915.435,VALID,0,VALID,95.8721,VALID,0,VALID,19.2753,VALID,129,VALID,0.482422,
2013-02-17, 03:04:05,VALID,915.432,VALID,0,VALID,95.834,VALID,0,VALID,19.2153,VALID,129,VALID,0.503516,
2013-02-17, 03:05:05,VALID,915.437,VALID,0,VALID,95.8873,VALID,0,VALID,19.2153,VALID,129,VALID,0.173047,
2013-02-17, 03:06:05,VALID,915.383,VALID,0,VALID,95.9407,VALID,0,VALID,19.2168,VALID,129,VALID,0.714844,
2013-02-17, 03:07:05,VALID,915.402,VALID,0,VALID,95.9788,VALID,0,VALID,19.1973,VALID,129,VALID,0.948438,
2013-02-17, 03:08:05,VALID,915.417,VALID,0,VALID,95.9864,VALID,0,VALID,19.1568,VALID,129,VALID,0.941406,
2013-02-17, 03:09:05,VALID,915.425,VALID,0,VALID,96.0474,VALID,0,VALID,19.1388,VALID,127,VALID,0.555469,
2013-02-17, 03:10:05,VALID,915.44,VALID,0,VALID,96.0855,VALID,0,VALID,19.1583,VALID,145,VALID,0.605078,
2013-02-17, 03:11:05,VALID,915.44,VALID,0.2,VALID,96.1313,VALID,0,VALID,19.1373,VALID,154,VALID,0.271875,
2013-02-17, 03:12:05,VALID,915.44,VALID,0,VALID,96.1846,VALID,0,VALID,19.1373,VALID,154,VALID,0.373828,
2013-02-17, 03:13:05,VALID,915.461,VALID,0,VALID,96.1694,VALID,0,VALID,19.1178,VALID,153,VALID,0.458594,
2013-02-17, 03:14:05,VALID,915.467,VALID,0.2,VALID,96.1694,VALID,0,VALID,19.1178,VALID,153,VALID,0.710547,
2013-02-17, 03:15:05,VALID,915.486,VALID,0,VALID,96.1618,VALID,0,VALID,19.1388,VALID,153,VALID,0.537109,
2013-02-17, 03:16:05,VALID,915.473,VALID,0,VALID,96.1923,VALID,0,VALID,19.1388,VALID,153,VALID,0.276172,
2013-02-17, 03:17:05,VALID,915.5,VALID,0.2,VALID,96.116,VALID,0,VALID,19.1193,VALID,153,VALID,0.366406,
2013-02-17, 03:18:05,VALID,915.478,VALID,0,VALID,96.1084,VALID,0,VALID,19.0983,VALID,153,VALID,0.354688,
2013-02-17, 03:19:05,VALID,915.476,VALID,0,VALID,96.0932,VALID,0,VALID,19.0788,VALID,153,VALID,0.535937,
2013-02-17, 03:20:05,VALID,915.489,VALID,0.2,VALID,96.116,VALID,0,VALID,19.0998,VALID,153,VALID,0.611328,
2013-02-17, 03:21:05,VALID,915.488,VALID,0,VALID,96.0932,VALID,0,VALID,19.0593,VALID,153,VALID,0.906641,
2013-02-17, 03:22:05,VALID,915.497,VALID,0.2,VALID,96.1236,VALID,0.107441,VALID,19.0593,VALID,153,VALID,0.308203,
2013-02-17, 03:23:05,VALID,915.512,VALID,0,VALID,96.1313,VALID,0,VALID,19.0398,VALID,153,VALID,0.132031,
2013-02-17, 03:24:05,VALID,915.511,VALID,0.2,VALID,96.1008,VALID,0,VALID,19.0593,VALID,153,VALID,0.757422,
2013-02-17, 03:25:05,VALID,915.548,VALID,0,VALID,96.1236,VALID,0,VALID,19.0398,VALID,153,VALID,0.657422,
2013-02-17, 03:26:05,VALID,915.497,VALID,0,VALID,96.1236,VALID,0,VALID,19.0218,VALID,153,VALID,0.636328,
2013-02-17, 03:27:05,VALID,915.539,VALID,0.2,VALID,96.1923,VALID,0,VALID,19.0398,VALID,153,VALID,0.533203,
2013-02-17, 03:28:05,VALID,915.535,VALID,0,VALID,96.1846,VALID,0,VALID,19.0398,VALID,153,VALID,0.542578,
2013-02-17, 03:29:05,VALID,915.551,VALID,0,VALID,96.1923,VALID,0,VALID,19.0593,VALID,153,VALID,0.542969,
2013-02-17, 03:30:05,VALID,915.56,VALID,0,VALID,96.2228,VALID,0,VALID,19.0983,VALID,153,VALID,0.376172,
2013-02-17, 03:31:05,VALID,915.6,VALID,0.2,VALID,96.2456,VALID,0,VALID,19.0983,VALID,153,VALID,0.657812,
2013-02-17, 03:32:05,VALID,915.616,VALID,0,VALID,96.2304,VALID,0,VALID,19.0998,VALID,153,VALID,0.727344,
2013-02-17, 03:33:05,VALID,915.623,VALID,0,VALID,96.2228,VALID,0,VALID,19.0788,VALID,153,VALID,0.916016,
2013-02-17, 03:34:05,VALID,915.606,VALID,0,VALID,96.2228,VALID,0,VALID,19.0788,VALID,153,VALID,0.474219,
2013-02-17, 03:35:05,VALID,915.607,VALID,0.2,VALID,96.2456,VALID,0,VALID,19.0998,VALID,153,VALID,0.508984,
2013-02-17, 03:36:05,VALID,915.608,VALID,0,VALID,96.2304,VALID,0,VALID,19.0593,VALID,153,VALID,0.659375,
2013-02-17, 03:37:05,VALID,915.618,VALID,0,VALID,96.2533,VALID,0,VALID,19.0803,VALID,153,VALID,0.440625,
2013-02-17, 03:38:05,VALID,915.607,VALID,0.2,VALID,96.2685,VALID,0,VALID,19.0998,VALID,153,VALID,0.273047,
2013-02-17, 03:39:05,VALID,915.642,VALID,0,VALID,96.2609,VALID,0,VALID,19.0983,VALID,153,VALID,0.254297,
2013-02-17, 03:40:05,VALID,915.622,VALID,0.2,VALID,96.3219,VALID,0,VALID,19.0998,VALID,153,VALID,0.414453,
2013-02-17, 03:41:05,VALID,915.618,VALID,0.2,VALID,96.3066,VALID,0,VALID,19.0998,VALID,153,VALID,0.439453,
2013-02-17, 03:42:05,VALID,915.637,VALID,0,VALID,96.3447,VALID,0,VALID,19.1193,VALID,153,VALID,0.123047,
2013-02-17, 03:43:05,VALID,915.619,VALID,0.2,VALID,96.3829,VALID,0,VALID,19.0998,VALID,153,VALID,0.182422,
2013-02-17, 03:44:05,VALID,915.605,VALID,0,VALID,96.4057,VALID,0,VALID,19.1178,VALID,153,VALID,0.140234,